Renton, WA
on Wednesday, December 26, 2012

Wednesday
Previous Day Next Day
Daily Summary
 ActualAverage (KSEA)Record (KSEA)
Temperature
Mean Temperature °F 40°F  
Max Temperature 46°F 45°F 62°F (1980)
Min Temperature 41°F 36°F 22°F (1948)
Degree Days
Heating Degree Days 22 25  
Month to date heating degree days 635  
Since 1 July heating degree days 1818  
Cooling Degree Days 0 0  
Month to date cooling degree days 0  
Year to date cooling degree days 189  
Moisture
Dew Point 38°F   
Average Humidity 80    
Maximum Humidity 89    
Minimum Humidity 65    
Precipitation
Precipitation 0.18 in 0.17 in 2.14 in (1974)
Month to date precipitation 4.54  
Year to date precipitation 36.68  
Snow
Snow 0.00 in in 8.80 in (1974)
Month to date snowfall  
Since 1 July snowfall  
Snow Depth in   
Wind
Wind Speed 4 mph   
Max Wind Speed 12 mph   
Max Gust Speed 21 mph   
Visibility 9 miles   
Events Rain   

Key: T is trace of precipitation, MM is missing value
Source: NWS Daily Summary
Time(PST)TemperatureDew PointHumidity Pressure Visibility Wind DirectionWind SpeedGust SpeedPrecipitationEvents Conditions
12:53 AM 44.1°F 33.1°F 65% 29.72 in 10.0 miles Calm Calm - 0.01 in Rain Light Rain
1:53 AM 43.0°F 36.0°F 76% 29.72 in 10.0 miles Calm Calm - 0.00 in   Overcast
2:53 AM 42.1°F 36.0°F 79% 29.73 in 10.0 miles Calm Calm - 0.01 in Rain Light Rain
3:53 AM 42.8°F 37.4°F 81% 29.73 in 10.0 miles Calm Calm - N/A Rain Light Rain
4:28 AM 41.0°F 35.6°F 81% 29.73 in 7.0 miles Calm Calm - 0.04 in Rain Light Rain
4:53 AM 41.0°F 36.0°F 82% 29.75 in 8.0 miles East 6.9 mph - 0.07 in Rain Light Rain
5:02 AM 41.0°F 35.6°F 81% 29.73 in 8.0 miles ESE 4.6 mph - 0.01 in Rain Light Rain
5:53 AM 41.0°F 35.1°F 79% 29.75 in 10.0 miles ESE 8.1 mph - 0.02 in Rain Light Rain
6:53 AM 41.0°F 36.0°F 82% 29.75 in 10.0 miles ESE 5.8 mph - 0.00 in   Overcast
7:14 AM 41.0°F 35.6°F 81% 29.74 in 10.0 miles SSW 5.8 mph - N/A   Overcast
7:53 AM 41.0°F 36.0°F 82% 29.77 in 10.0 miles ESE 3.5 mph - 0.00 in Rain Light Rain
8:53 AM 42.1°F 36.0°F 79% 29.79 in 10.0 miles SE 5.8 mph - 0.00 in   Overcast
9:53 AM 43.0°F 37.0°F 80% 29.80 in 10.0 miles SSE 5.8 mph - N/A   Overcast
10:53 AM 44.1°F 37.9°F 79% 29.81 in 10.0 miles ESE 4.6 mph - N/A   Overcast
11:53 AM 46.0°F 39.0°F 76% 29.81 in 8.0 miles SE 3.5 mph - 0.00 in Rain Light Rain
12:53 PM 46.0°F 39.0°F 76% 29.80 in 10.0 miles Variable 3.5 mph - 0.00 in   Overcast
1:53 PM 45.0°F 39.9°F 82% 29.81 in 4.0 miles Calm Calm - 0.01 in Rain Light Rain
2:53 PM 45.0°F 41.0°F 86% 29.81 in 7.0 miles ESE 3.5 mph - 0.02 in Rain Light Rain
3:53 PM 46.9°F 39.9°F 77% 29.83 in 10.0 miles SSE 8.1 mph - 0.01 in Rain Light Rain
4:17 PM 44.6°F 41.0°F 87% 29.81 in 10.0 miles ESE 4.6 mph - 0.00 in   Overcast
4:53 PM 44.1°F 41.0°F 89% 29.83 in 10.0 miles ESE 5.8 mph - 0.01 in Rain Light Rain
5:53 PM 46.0°F 39.0°F 76% 29.84 in 10.0 miles SSE 8.1 mph - 0.00 in Rain Light Rain
6:53 PM 46.0°F 39.0°F 76% 29.85 in 10.0 miles SSE 8.1 mph 17.3 mph 0.00 in Rain Light Rain
7:53 PM 45.0°F 39.0°F 80% 29.86 in 10.0 miles SSE 9.2 mph 17.3 mph 0.01 in Rain Light Rain
8:53 PM 45.0°F 39.0°F 80% 29.87 in 10.0 miles SSE 11.5 mph 20.7 mph 0.00 in Rain Light Rain
9:53 PM 45.0°F 39.0°F 80% 29.89 in 10.0 miles SSE 10.4 mph - 0.00 in   Overcast
10:53 PM 45.0°F 37.9°F 76% 29.92 in 10.0 miles SSE 8.1 mph 16.1 mph 0.00 in Rain Light Rain
11:53 PM 45.0°F 39.0°F 80% 29.94 in 7.0 miles SSE 9.2 mph - 0.01 in Rain Light Rain
Moon Phase
Dec. 26 Dec. 28 Jan. 04 Jan. 11 Jan. 18
Sunrise:07:55 AM (PST) Moon Rise:03:23 PM (PST)
Sunset:04:23 PM (PST) Moon Set:06:21 AM (PST)

Copyright © 2014 The Weather Underground, Inc.